Location: *
(37.5724°S, 58.0067°E)
Time: 11:48:06
(UTC+00:00)

Lacrosse 5 - Pass Details

Date: 21 January 2021
Orbit: 715 x 724 km, 57.0° (Epoch: 22 February)

Event Time Altitude Azimuth Distance (km) Brightness Sun altitude
Exits shadow 19:01:56 19° 125° (SE) 1,716 3.9 -29.9°
Drops below altitude 10° 19:03:22 10° 130° (SE) 2,238 4.6 -30.0°
Sets 19:05:49 0° 134° (SE) 3,166 5.5 -30.1°
